Change the Weather History Date:

Sunday, January 19, 2014

  Actual Average Record
Temperature  
Mean Temperature 46 °F 28 °F  
Max Temperature 66 °F 41 °F 66 °F (1911)
Min Temperature 25 °F 16 °F -16 °F (1963)
Degree Days  
Heating Degree Days 19 37  
Month to date heating degree days 642 703  
Cooling Degree Days 0 0  
Month to date cooling degree days 0 0  
Year to date cooling degree days 0 0  
Moisture  
Dew Point 14 °F    
Average Humidity 37    
Maximum Humidity 63    
Minimum Humidity 11    
Precipitation  
Precipitation 0.00 in 0.00 in 0.90 in (1988)
Sea Level Pressure  
Sea Level Pressure 29.98 in    
Wind  
Wind Speed 12 mph (WNW)    
Max Wind Speed 29 mph    
Max Gust Speed 36 mph    
Visibility 10 miles    
Events      
T = Trace of Precipitation, MM = Missing Value Source: NWS Daily Summary

Daily Weather History Graph

Daily Weather History Graph

Search for Another Location

Airport or City:

Trip Planner

Search our weather history database for the weather conditions in past years. The results will help you decide how hot, cold, wet, or windy it might be!

Date:

Astronomy

Jan. 19, 2014 Rise Set
Actual Time 7:05 AM MST 4:49 PM MST
Civil Twilight 6:36 AM MST 5:18 PM MST
Nautical Twilight 6:02 AM MST 5:52 PM MST
Astronomical Twilight 5:30 AM MST 6:24 PM MST
Moon 8:29 PM MST (1/19) 8:36 AM MST (1/19)
Length of Visible Light 10h 42m
Length of Day
9h 43m
Waning Gibbous, 89% of the Moon is Illuminated
Jan 19
Waning Gibbous
Jan 23
Last Quarter
Jan 30
New
Feb 6
First Quarter
Feb 14
Full

Hourly Weather History & Observations

Time (MST) Temp. Windchill Dew Point Humidity Pressure Visibility Wind Dir Wind Speed Gust Speed Precip Events Conditions
12:53 AM 27.0 °F 16.7 °F 14.0 °F 58% 30.08 in 10.0 mi West 11.5 mph - N/A   Clear
1:53 AM 28.0 °F 19.3 °F 14.0 °F 56% 30.07 in 10.0 mi WNW 9.2 mph - N/A   Clear
2:53 AM 26.1 °F 16.8 °F 14.0 °F 60% 30.06 in 10.0 mi WNW 9.2 mph - N/A   Clear
3:53 AM 27.0 °F 16.1 °F 15.1 °F 61% 30.04 in 10.0 mi West 12.7 mph - N/A   Clear
4:53 AM 27.0 °F 16.7 °F 16.0 °F 63% 30.05 in 10.0 mi West 11.5 mph - N/A   Clear
5:53 AM 32.0 °F 22.1 °F 17.1 °F 54% 30.02 in 10.0 mi West 13.8 mph - N/A   Clear
6:53 AM 28.0 °F 18.1 °F 17.1 °F 63% 30.05 in 10.0 mi West 11.5 mph - N/A   Clear
7:53 AM 32.0 °F 23.6 °F 17.1 °F 54% 30.04 in 10.0 mi WNW 10.4 mph - N/A   Clear
8:53 AM 41.0 °F 33.9 °F 18.0 °F 40% 30.02 in 10.0 mi West 12.7 mph - N/A   Clear
9:53 AM 53.1 °F - 21.0 °F 29% 30.00 in 10.0 mi WNW 15.0 mph 24.2 mph N/A   Clear
10:53 AM 60.1 °F - 17.1 °F 19% 29.98 in 10.0 mi NW 26.5 mph 33.4 mph N/A   Clear
11:53 AM 61.0 °F - 17.1 °F 18% 29.95 in 10.0 mi WNW 21.9 mph 26.5 mph N/A   Clear
12:53 PM 64.0 °F - 15.1 °F 15% 29.91 in 10.0 mi NW 21.9 mph 27.6 mph N/A   Clear
1:53 PM 64.9 °F - 12.9 °F 13% 29.88 in 10.0 mi NW 17.3 mph - N/A   Clear
2:53 PM 64.9 °F - 9.0 °F 11% 29.90 in 10.0 mi NNW 13.8 mph - N/A   Clear
3:53 PM 63.0 °F - 9.0 °F 12% 29.89 in 10.0 mi WNW 8.1 mph - N/A   Clear
4:53 PM 55.9 °F - 9.0 °F 15% 29.91 in 10.0 mi West 4.6 mph - N/A   Clear
5:53 PM 46.0 °F 43.9 °F 9.0 °F 22% 29.92 in 10.0 mi SW 4.6 mph - N/A   Clear
6:53 PM 32.0 °F 26.4 °F 8.1 °F 37% 29.98 in 10.0 mi NNE 5.8 mph - N/A   Clear
7:53 PM 34.0 °F 29.8 °F 10.0 °F 37% 29.98 in 10.0 mi NW 4.6 mph - N/A   Clear
8:53 PM 39.9 °F 35.1 °F 12.9 °F 33% 29.95 in 10.0 mi WNW 6.9 mph - N/A   Unknown
9:53 PM 37.9 °F - 12.9 °F 36% 29.94 in 10.0 mi Calm Calm - N/A   Clear
10:53 PM 39.0 °F 32.3 °F 12.9 °F 34% 29.92 in 10.0 mi NW 10.4 mph - N/A   Clear
11:53 PM 32.0 °F - 12.9 °F 45% 29.94 in 10.0 mi North - - N/A   Clear